2019-252T00:45:56.160,   1,   5,   1,    30,   4,       4096,     12.981,  47481.752,    43.051,    -6.766,     0.332,    50.726, 3, 2.400E+01,  1.50,  78,  2.126E-02,  1.147E-01, -9.999E+09, -9.999E+09, -9.999E+09, -9.999E+09, -9.999E+09, -9.999E+09, -9.999E+09, -9.999E+09, -9.999E+09, -9.999E+09, -9.999E+09, -9.999E+09, -9.999E+09, -9.999E+09, -9.999E+09, -9.999E+09, 255
2019-252T00:46:26.160,   1,   5,   1,    30,   4,       4096,     12.981,  47481.752,    43.048,    -6.766,     0.332,    50.424, 3, 2.400E+01,  1.50,  78,  3.113E-02,  1.147E-01, -9.999E+09, -9.999E+09, -9.999E+09, -9.999E+09, -9.999E+09, -9.999E+09, -9.999E+09, -9.999E+09, -9.999E+09, -9.999E+09, -9.999E+09, -9.999E+09, -9.999E+09, -9.999E+09, -9.999E+09, -9.999E+09, 255
2019-252T00:46:56.161,   1,   5,   1,    30,   4,       4096,     12.981,  47481.752,    43.045,    -6.765,     0.332,    50.121, 3, 2.400E+01,  1.50,  78,  3.092E-02,  1.147E-01, -9.999E+09, -9.999E+09, -9.999E+09, -9.999E+09, -9.999E+09, -9.999E+09, -9.999E+09, -9.999E+09, -9.999E+09, -9.999E+09, -9.999E+09, -9.999E+09, -9.999E+09, -9.999E+09, -9.999E+09, -9.999E+09, 255
2019-252T00:47:26.161,   1,   5,   1,    30,   4,       4096,     12.981,  47481.752,    43.042,    -6.764,     0.332,    49.819, 3, 2.400E+01,  1.50,  78,  2.308E-02,  1.147E-01, -9.999E+09, -9.999E+09, -9.999E+09, -9.999E+09, -9.999E+09, -9.999E+09, -9.999E+09, -9.999E+09, -9.999E+09, -9.999E+09, -9.999E+09, -9.999E+09, -9.999E+09, -9.999E+09, -9.999E+09, -9.999E+09, 255
2019-252T00:47:56.161,   1,   5,   1,    30,   4,       4096,     12.981,  47481.752,    43.039,    -6.763,     0.332,    49.516, 3, 2.400E+01,  1.50,  78,  3.186E-02,  1.147E-01, -9.999E+09, -9.999E+09, -9.999E+09, -9.999E+09, -9.999E+09, -9.999E+09, -9.999E+09, -9.999E+09, -9.999E+09, -9.999E+09, -9.999E+09, -9.999E+09, -9.999E+09, -9.999E+09, -9.999E+09, -9.999E+09, 255
2019-252T00:48:26.162,   1,   5,   1,    30,   4,       4096,     12.981,  47481.752,    43.036,    -6.762,     0.332,    49.214, 3, 2.400E+01,  1.50,  78,  3.620E-02,  1.147E-01, -9.999E+09, -9.999E+09, -9.999E+09, -9.999E+09, -9.999E+09, -9.999E+09, -9.999E+09, -9.999E+09, -9.999E+09, -9.999E+09, -9.999E+09, -9.999E+09, -9.999E+09, -9.999E+09, -9.999E+09, -9.999E+09, 255
2019-252T00:48:56.162,   1,   5,   1,    30,   4,       4096,     12.981,  47481.752,    43.033,    -6.762,     0.332,    48.912, 3, 2.400E+01,  1.50,  78,  2.788E-02,  1.147E-01, -9.999E+09, -9.999E+09, -9.999E+09, -9.999E+09, -9.999E+09, -9.999E+09, -9.999E+09, -9.999E+09, -9.999E+09, -9.999E+09, -9.999E+09, -9.999E+09, -9.999E+09, -9.999E+09, -9.999E+09, -9.999E+09, 255
2019-252T00:49:26.162,   1,   5,   1,    30,   4,       4096,     12.981,  47481.752,    43.030,    -6.761,     0.332,    48.609, 3, 2.400E+01,  1.50,  78,  2.385E-02,  1.147E-01, -9.999E+09, -9.999E+09, -9.999E+09, -9.999E+09, -9.999E+09, -9.999E+09, -9.999E+09, -9.999E+09, -9.999E+09, -9.999E+09, -9.999E+09, -9.999E+09, -9.999E+09, -9.999E+09, -9.999E+09, -9.999E+09, 255
2019-252T00:49:56.163,   1,   5,   1,    30,   4,       4096,     12.981,  47481.752,    43.027,    -6.760,     0.332,    48.307, 3, 2.400E+01,  1.50,  78,  2.946E-02,  1.147E-01, -9.999E+09, -9.999E+09, -9.999E+09, -9.999E+09, -9.999E+09, -9.999E+09, -9.999E+09, -9.999E+09, -9.999E+09, -9.999E+09, -9.999E+09, -9.999E+09, -9.999E+09, -9.999E+09, -9.999E+09, -9.999E+09, 255
2019-252T00:50:26.163,   1,   5,   1,    30,   4,       4096,     12.981,  47481.752,    43.024,    -6.759,     0.332,    48.004, 3, 2.400E+01,  1.50,  78,  2.935E-02,  1.147E-01, -9.999E+09, -9.999E+09, -9.999E+09, -9.999E+09, -9.999E+09, -9.999E+09, -9.999E+09, -9.999E+09, -9.999E+09, -9.999E+09, -9.999E+09, -9.999E+09, -9.999E+09, -9.999E+09, -9.999E+09, -9.999E+09, 255
2019-252T00:50:56.163,   1,   5,   1,    30,   4,       4096,     12.981,  47481.752,    43.021,    -6.758,     0.332,    47.702, 3, 2.400E+01,  1.50,  78,  2.514E-02,  1.147E-01, -9.999E+09, -9.999E+09, -9.999E+09, -9.999E+09, -9.999E+09, -9.999E+09, -9.999E+09, -9.999E+09, -9.999E+09, -9.999E+09, -9.999E+09, -9.999E+09, -9.999E+09, -9.999E+09, -9.999E+09, -9.999E+09, 255
2019-252T00:51:26.164,   1,   5,   1,    30,   4,       4096,     12.981,  47481.752,    43.018,    -6.758,     0.332,    47.399, 3, 2.400E+01,  1.50,  78,  1.700E-02,  1.147E-01, -9.999E+09, -9.999E+09, -9.999E+09, -9.999E+09, -9.999E+09, -9.999E+09, -9.999E+09, -9.999E+09, -9.999E+09, -9.999E+09, -9.999E+09, -9.999E+09, -9.999E+09, -9.999E+09, -9.999E+09, -9.999E+09, 255
2019-252T02:24:26.228,   1,   5,   1,    30,   4,       4096,     12.981,  47481.752,    42.469,    -6.609,     0.330,   351.147, 3, 2.400E+01,  1.50,  78,  1.387E-02,  1.147E-01, -9.999E+09, -9.999E+09, -9.999E+09, -9.999E+09, -9.999E+09, -9.999E+09, -9.999E+09, -9.999E+09, -9.999E+09, -9.999E+09, -9.999E+09, -9.999E+09, -9.999E+09, -9.999E+09, -9.999E+09, -9.999E+09, 255
2019-252T02:24:56.229,   1,   5,   1,    30,   4,       4096,     12.981,  47481.752,    42.466,    -6.608,     0.330,   350.844, 3, 2.400E+01,  1.50,  78,  1.370E-02,  1.147E-01, -9.999E+09, -9.999E+09, -9.999E+09, -9.999E+09, -9.999E+09, -9.999E+09, -9.999E+09, -9.999E+09, -9.999E+09, -9.999E+09, -9.999E+09, -9.999E+09, -9.999E+09, -9.999E+09, -9.999E+09, -9.999E+09, 255
2019-252T02:25:26.229,   1,   5,   1,    30,   4,       4096,     12.981,  47481.752,    42.463,    -6.607,     0.330,   350.542, 3, 2.400E+01,  1.50,  78,  1.235E-02,  1.147E-01, -9.999E+09, -9.999E+09, -9.999E+09, -9.999E+09, -9.999E+09, -9.999E+09, -9.999E+09, -9.999E+09, -9.999E+09, -9.999E+09, -9.999E+09, -9.999E+09, -9.999E+09, -9.999E+09, -9.999E+09, -9.999E+09, 255
2019-252T02:25:56.229,   1,   5,   1,    30,   4,       4096,     12.981,  47481.752,    42.460,    -6.606,     0.330,   350.240, 3, 2.400E+01,  1.50,  78,  1.916E-02,  1.147E-01, -9.999E+09, -9.999E+09, -9.999E+09, -9.999E+09, -9.999E+09, -9.999E+09, -9.999E+09, -9.999E+09, -9.999E+09, -9.999E+09, -9.999E+09, -9.999E+09, -9.999E+09, -9.999E+09, -9.999E+09, -9.999E+09, 255
2019-252T02:26:26.230,   1,   5,   1,    30,   4,       4096,     12.981,  47481.752,    42.457,    -6.605,     0.330,   349.937, 3, 2.400E+01,  1.50,  78,  2.216E-02,  1.147E-01, -9.999E+09, -9.999E+09, -9.999E+09, -9.999E+09, -9.999E+09, -9.999E+09, -9.999E+09, -9.999E+09, -9.999E+09, -9.999E+09, -9.999E+09, -9.999E+09, -9.999E+09, -9.999E+09, -9.999E+09, -9.999E+09, 255
2019-252T02:26:56.230,   1,   5,   1,    30,   4,       4096,     12.981,  47481.752,    42.454,    -6.605,     0.330,   349.635, 3, 2.400E+01,  1.50,  78,  1.912E-02,  1.147E-01, -9.999E+09, -9.999E+09, -9.999E+09, -9.999E+09, -9.999E+09, -9.999E+09, -9.999E+09, -9.999E+09, -9.999E+09, -9.999E+09, -9.999E+09, -9.999E+09, -9.999E+09, -9.999E+09, -9.999E+09, -9.999E+09, 255
2019-252T02:27:26.230,   1,   5,   1,    30,   4,       4096,     12.981,  47481.752,    42.451,    -6.604,     0.330,   349.332, 3, 2.400E+01,  1.50,  78,  1.670E-02,  1.147E-01, -9.999E+09, -9.999E+09, -9.999E+09, -9.999E+09, -9.999E+09, -9.999E+09, -9.999E+09, -9.999E+09, -9.999E+09, -9.999E+09, -9.999E+09, -9.999E+09, -9.999E+09, -9.999E+09, -9.999E+09, -9.999E+09, 255
2019-252T02:28:26.231,   1,   5,   1,    30,   4,       4096,     12.981,  47481.752,    42.445,    -6.602,     0.330,   348.727, 3, 2.400E+01,  1.50,  78,  2.045E-02,  1.147E-01, -9.999E+09, -9.999E+09, -9.999E+09, -9.999E+09, -9.999E+09, -9.999E+09, -9.999E+09, -9.999E+09, -9.999E+09, -9.999E+09, -9.999E+09, -9.999E+09, -9.999E+09, -9.999E+09, -9.999E+09, -9.999E+09, 255
2019-252T02:29:26.232,   1,   5,   1,    30,   4,       4096,     12.981,  47481.752,    42.439,    -6.601,     0.330,   348.123, 3, 2.400E+01,  1.50,  78,  1.150E-02,  1.147E-01, -9.999E+09, -9.999E+09, -9.999E+09, -9.999E+09, -9.999E+09, -9.999E+09, -9.999E+09, -9.999E+09, -9.999E+09, -9.999E+09, -9.999E+09, -9.999E+09, -9.999E+09, -9.999E+09, -9.999E+09, -9.999E+09, 255
2019-252T02:33:26.235,   1,   5,   1,    30,   4,       4096,     12.981,  47481.752,    42.415,    -6.594,     0.330,   345.703, 3, 2.400E+01,  1.50,  78,  1.515E-02,  1.147E-01, -9.999E+09, -9.999E+09, -9.999E+09, -9.999E+09, -9.999E+09, -9.999E+09, -9.999E+09, -9.999E+09, -9.999E+09, -9.999E+09, -9.999E+09, -9.999E+09, -9.999E+09, -9.999E+09, -9.999E+09, -9.999E+09, 255
2019-252T02:33:56.235,   1,   5,   1,    30,   4,       4096,     12.981,  47481.752,    42.412,    -6.593,     0.329,   345.401, 3, 2.400E+01,  1.50,  78,  1.840E-02,  1.147E-01, -9.999E+09, -9.999E+09, -9.999E+09, -9.999E+09, -9.999E+09, -9.999E+09, -9.999E+09, -9.999E+09, -9.999E+09, -9.999E+09, -9.999E+09, -9.999E+09, -9.999E+09, -9.999E+09, -9.999E+09, -9.999E+09, 255
2019-252T02:34:26.235,   1,   5,   1,    30,   4,       4096,     12.981,  47481.752,    42.409,    -6.592,     0.329,   345.098, 3, 2.400E+01,  1.50,  78,  1.303E-02,  1.147E-01, -9.999E+09, -9.999E+09, -9.999E+09, -9.999E+09, -9.999E+09, -9.999E+09, -9.999E+09, -9.999E+09, -9.999E+09, -9.999E+09, -9.999E+09, -9.999E+09, -9.999E+09, -9.999E+09, -9.999E+09, -9.999E+09, 255
2019-252T02:34:56.236,   1,   5,   1,    30,   4,       4096,     12.981,  47481.752,    42.406,    -6.592,     0.329,   344.796, 3, 2.400E+01,  1.50,  78,  1.158E-02,  1.147E-01, -9.999E+09, -9.999E+09, -9.999E+09, -9.999E+09, -9.999E+09, -9.999E+09, -9.999E+09, -9.999E+09, -9.999E+09, -9.999E+09, -9.999E+09, -9.999E+09, -9.999E+09, -9.999E+09, -9.999E+09, -9.999E+09, 255
2019-252T02:35:26.236,   1,   5,   1,    30,   4,       4096,     12.981,  47481.752,    42.403,    -6.591,     0.329,   344.493, 3, 2.400E+01,  1.50,  78,  1.556E-02,  1.147E-01, -9.999E+09, -9.999E+09, -9.999E+09, -9.999E+09, -9.999E+09, -9.999E+09, -9.999E+09, -9.999E+09, -9.999E+09, -9.999E+09, -9.999E+09, -9.999E+09, -9.999E+09, -9.999E+09, -9.999E+09, -9.999E+09, 255
2019-252T02:35:56.236,   1,   5,   1,    30,   4,       4096,     12.981,  47481.752,    42.400,    -6.590,     0.329,   344.191, 3, 2.400E+01,  1.50,  78,  1.279E-02,  1.147E-01, -9.999E+09, -9.999E+09, -9.999E+09, -9.999E+09, -9.999E+09, -9.999E+09, -9.999E+09, -9.999E+09, -9.999E+09, -9.999E+09, -9.999E+09, -9.999E+09, -9.999E+09, -9.999E+09, -9.999E+09, -9.999E+09, 255
2019-252T02:36:26.237,   1,   5,   1,    30,   4,       4096,     12.981,  47481.752,    42.397,    -6.589,     0.329,   343.888, 3, 2.400E+01,  1.50,  78,  1.616E-02,  1.147E-01, -9.999E+09, -9.999E+09, -9.999E+09, -9.999E+09, -9.999E+09, -9.999E+09, -9.999E+09, -9.999E+09, -9.999E+09, -9.999E+09, -9.999E+09, -9.999E+09, -9.999E+09, -9.999E+09, -9.999E+09, -9.999E+09, 255
2019-252T02:36:56.237,   1,   5,   1,    30,   4,       4096,     12.981,  47481.752,    42.394,    -6.588,     0.329,   343.586, 3, 2.400E+01,  1.50,  78,  2.185E-02,  1.147E-01, -9.999E+09, -9.999E+09, -9.999E+09, -9.999E+09, -9.999E+09, -9.999E+09, -9.999E+09, -9.999E+09, -9.999E+09, -9.999E+09, -9.999E+09, -9.999E+09, -9.999E+09, -9.999E+09, -9.999E+09, -9.999E+09, 255
2019-252T02:37:26.238,   1,   5,   1,    30,   4,       4096,     12.981,  47481.752,    42.391,    -6.588,     0.329,   343.284, 3, 2.400E+01,  1.50,  78,  1.322E-02,  1.147E-01, -9.999E+09, -9.999E+09, -9.999E+09, -9.999E+09, -9.999E+09, -9.999E+09, -9.999E+09, -9.999E+09, -9.999E+09, -9.999E+09, -9.999E+09, -9.999E+09, -9.999E+09, -9.999E+09, -9.999E+09, -9.999E+09, 255
2019-252T02:38:26.238,   1,   5,   1,    30,   4,       4096,     12.981,  47481.752,    42.385,    -6.586,     0.329,   342.679, 3, 2.400E+01,  1.50,  78,  1.238E-02,  1.147E-01, -9.999E+09, -9.999E+09, -9.999E+09, -9.999E+09, -9.999E+09, -9.999E+09, -9.999E+09, -9.999E+09, -9.999E+09, -9.999E+09, -9.999E+09, -9.999E+09, -9.999E+09, -9.999E+09, -9.999E+09, -9.999E+09, 255
2019-252T02:38:56.239,   1,   5,   1,    30,   4,       4096,     12.981,  47481.752,    42.382,    -6.585,     0.329,   342.376, 3, 2.400E+01,  1.50,  78,  1.574E-02,  1.147E-01, -9.999E+09, -9.999E+09, -9.999E+09, -9.999E+09, -9.999E+09, -9.999E+09, -9.999E+09, -9.999E+09, -9.999E+09, -9.999E+09, -9.999E+09, -9.999E+09, -9.999E+09, -9.999E+09, -9.999E+09, -9.999E+09, 255
2019-252T02:39:26.239,   1,   5,   1,    30,   4,       4096,     12.981,  47481.752,    42.379,    -6.584,     0.329,   342.074, 3, 2.400E+01,  1.50,  78,  1.554E-02,  1.147E-01, -9.999E+09, -9.999E+09, -9.999E+09, -9.999E+09, -9.999E+09, -9.999E+09, -9.999E+09, -9.999E+09, -9.999E+09, -9.999E+09, -9.999E+09, -9.999E+09, -9.999E+09, -9.999E+09, -9.999E+09, -9.999E+09, 255
2019-252T02:39:56.239,   1,   5,   1,    30,   4,       4096,     12.981,  47481.752,    42.376,    -6.583,     0.329,   341.771, 3, 2.400E+01,  1.50,  78,  1.849E-02,  1.147E-01, -9.999E+09, -9.999E+09, -9.999E+09, -9.999E+09, -9.999E+09, -9.999E+09, -9.999E+09, -9.999E+09, -9.999E+09, -9.999E+09, -9.999E+09, -9.999E+09, -9.999E+09, -9.999E+09, -9.999E+09, -9.999E+09, 255
2019-252T02:40:26.240,   1,   5,   1,    30,   4,       4096,     12.981,  47481.752,    42.373,    -6.583,     0.329,   341.469, 3, 2.400E+01,  1.50,  78,  1.594E-02,  1.147E-01, -9.999E+09, -9.999E+09, -9.999E+09, -9.999E+09, -9.999E+09, -9.999E+09, -9.999E+09, -9.999E+09, -9.999E+09, -9.999E+09, -9.999E+09, -9.999E+09, -9.999E+09, -9.999E+09, -9.999E+09, -9.999E+09, 255
2019-252T02:40:56.240,   1,   5,   1,    30,   4,       4096,     12.981,  47481.752,    42.370,    -6.582,     0.329,   341.167, 3, 2.400E+01,  1.50,  78,  1.331E-02,  1.147E-01, -9.999E+09, -9.999E+09, -9.999E+09, -9.999E+09, -9.999E+09, -9.999E+09, -9.999E+09, -9.999E+09, -9.999E+09, -9.999E+09, -9.999E+09, -9.999E+09, -9.999E+09, -9.999E+09, -9.999E+09, -9.999E+09, 255
2019-252T02:41:26.240,   1,   5,   1,    30,   4,       4096,     12.981,  47481.752,    42.367,    -6.581,     0.329,   340.864, 3, 2.400E+01,  1.50,  78,  1.573E-02,  1.147E-01, -9.999E+09, -9.999E+09, -9.999E+09, -9.999E+09, -9.999E+09, -9.999E+09, -9.999E+09, -9.999E+09, -9.999E+09, -9.999E+09, -9.999E+09, -9.999E+09, -9.999E+09, -9.999E+09, -9.999E+09, -9.999E+09, 255
2019-252T02:41:56.241,   1,   5,   1,    30,   4,       4096,     12.981,  47481.752,    42.364,    -6.580,     0.329,   340.562, 3, 2.400E+01,  1.50,  78,  1.812E-02,  1.147E-01, -9.999E+09, -9.999E+09, -9.999E+09, -9.999E+09, -9.999E+09, -9.999E+09, -9.999E+09, -9.999E+09, -9.999E+09, -9.999E+09, -9.999E+09, -9.999E+09, -9.999E+09, -9.999E+09, -9.999E+09, -9.999E+09, 255
2019-252T03:43:56.284,   1,   5,   1,    30,   4,       4096,     12.981,  47481.752,    41.994,    -6.478,     0.328,   303.059, 3, 2.400E+01,  1.50,  78,  1.311E-02,  1.147E-01, -9.999E+09, -9.999E+09, -9.999E+09, -9.999E+09, -9.999E+09, -9.999E+09, -9.999E+09, -9.999E+09, -9.999E+09, -9.999E+09, -9.999E+09, -9.999E+09, -9.999E+09, -9.999E+09, -9.999E+09, -9.999E+09, 255
2019-252T03:47:26.286,   1,   5,   1,    30,   4,       4096,     12.981,  47481.752,    41.973,    -6.472,     0.328,   300.942, 3, 2.400E+01,  1.50,  78,  1.342E-02,  1.147E-01, -9.999E+09, -9.999E+09, -9.999E+09, -9.999E+09, -9.999E+09, -9.999E+09, -9.999E+09, -9.999E+09, -9.999E+09, -9.999E+09, -9.999E+09, -9.999E+09, -9.999E+09, -9.999E+09, -9.999E+09, -9.999E+09, 255
2019-252T03:50:56.289,   1,   5,   1,    30,   4,       4096,     12.981,  47481.752,    41.952,    -6.467,     0.327,   298.825, 3, 2.400E+01,  1.50,  78,  1.147E-02,  1.147E-01, -9.999E+09, -9.999E+09, -9.999E+09, -9.999E+09, -9.999E+09, -9.999E+09, -9.999E+09, -9.999E+09, -9.999E+09, -9.999E+09, -9.999E+09, -9.999E+09, -9.999E+09, -9.999E+09, -9.999E+09, -9.999E+09, 255
2019-252T03:54:26.291,   1,   5,   1,    30,   4,       4096,     12.981,  47481.752,    41.931,    -6.461,     0.327,   296.708, 3, 2.400E+01,  1.50,  78,  1.545E-02,  1.147E-01, -9.999E+09, -9.999E+09, -9.999E+09, -9.999E+09, -9.999E+09, -9.999E+09, -9.999E+09, -9.999E+09, -9.999E+09, -9.999E+09, -9.999E+09, -9.999E+09, -9.999E+09, -9.999E+09, -9.999E+09, -9.999E+09, 255
2019-252T04:10:56.302,   1,   5,   1,    30,   4,       4096,     12.981,  47481.752,    41.832,    -6.433,     0.327,   286.728, 3, 2.400E+01,  1.50,  78,  1.198E-02,  1.147E-01, -9.999E+09, -9.999E+09, -9.999E+09, -9.999E+09, -9.999E+09, -9.999E+09, -9.999E+09, -9.999E+09, -9.999E+09, -9.999E+09, -9.999E+09, -9.999E+09, -9.999E+09, -9.999E+09, -9.999E+09, -9.999E+09, 255
2019-252T04:11:56.303,   1,   5,   1,    30,   4,       4096,     12.981,  47481.752,    41.826,    -6.432,     0.327,   286.123, 3, 2.400E+01,  1.50,  78,  1.386E-02,  1.147E-01, -9.999E+09, -9.999E+09, -9.999E+09, -9.999E+09, -9.999E+09, -9.999E+09, -9.999E+09, -9.999E+09, -9.999E+09, -9.999E+09, -9.999E+09, -9.999E+09, -9.999E+09, -9.999E+09, -9.999E+09, -9.999E+09, 255
2019-252T04:12:26.304,   1,   5,   1,    30,   4,       4096,     12.981,  47481.752,    41.823,    -6.431,     0.327,   285.820, 3, 2.400E+01,  1.50,  78,  1.188E-02,  1.147E-01, -9.999E+09, -9.999E+09, -9.999E+09, -9.999E+09, -9.999E+09, -9.999E+09, -9.999E+09, -9.999E+09, -9.999E+09, -9.999E+09, -9.999E+09, -9.999E+09, -9.999E+09, -9.999E+09, -9.999E+09, -9.999E+09, 255
2019-252T04:12:56.304,   1,   5,   1,    30,   4,       4096,     12.981,  47481.752,    41.820,    -6.430,     0.327,   285.518, 3, 2.400E+01,  1.50,  78,  1.423E-02,  1.147E-01, -9.999E+09, -9.999E+09, -9.999E+09, -9.999E+09, -9.999E+09, -9.999E+09, -9.999E+09, -9.999E+09, -9.999E+09, -9.999E+09, -9.999E+09, -9.999E+09, -9.999E+09, -9.999E+09, -9.999E+09, -9.999E+09, 255
2019-252T04:13:26.304,   1,   5,   1,    30,   4,       4096,     12.981,  47481.752,    41.817,    -6.429,     0.327,   285.216, 3, 2.400E+01,  1.50,  78,  1.444E-02,  1.147E-01, -9.999E+09, -9.999E+09, -9.999E+09, -9.999E+09, -9.999E+09, -9.999E+09, -9.999E+09, -9.999E+09, -9.999E+09, -9.999E+09, -9.999E+09, -9.999E+09, -9.999E+09, -9.999E+09, -9.999E+09, -9.999E+09, 255
2019-252T04:15:56.306,   1,   5,   1,    30,   4,       4096,     12.981,  47481.752,    41.802,    -6.425,     0.327,   283.703, 3, 2.400E+01,  1.50,  78,  1.536E-02,  1.147E-01, -9.999E+09, -9.999E+09, -9.999E+09, -9.999E+09, -9.999E+09, -9.999E+09, -9.999E+09, -9.999E+09, -9.999E+09, -9.999E+09, -9.999E+09, -9.999E+09, -9.999E+09, -9.999E+09, -9.999E+09, -9.999E+09, 255
2019-252T04:16:56.307,   1,   5,   1,    30,   4,       4096,     12.981,  47481.752,    41.796,    -6.423,     0.327,   283.098, 3, 2.400E+01,  1.50,  78,  1.169E-02,  1.147E-01, -9.999E+09, -9.999E+09, -9.999E+09, -9.999E+09, -9.999E+09, -9.999E+09, -9.999E+09, -9.999E+09, -9.999E+09, -9.999E+09, -9.999E+09, -9.999E+09, -9.999E+09, -9.999E+09, -9.999E+09, -9.999E+09, 255
2019-252T04:18:56.308,   1,   5,   1,    30,   4,       4096,     12.981,  47481.752,    41.784,    -6.420,     0.327,   281.889, 3, 2.400E+01,  1.50,  78,  1.876E-02,  1.147E-01, -9.999E+09, -9.999E+09, -9.999E+09, -9.999E+09, -9.999E+09, -9.999E+09, -9.999E+09, -9.999E+09, -9.999E+09, -9.999E+09, -9.999E+09, -9.999E+09, -9.999E+09, -9.999E+09, -9.999E+09, -9.999E+09, 255
2019-252T04:19:56.309,   1,   5,   1,    30,   4,       4096,     12.981,  47481.752,    41.778,    -6.418,     0.327,   281.284, 3, 2.400E+01,  1.50,  78,  1.895E-02,  1.147E-01, -9.999E+09, -9.999E+09, -9.999E+09, -9.999E+09, -9.999E+09, -9.999E+09, -9.999E+09, -9.999E+09, -9.999E+09, -9.999E+09, -9.999E+09, -9.999E+09, -9.999E+09, -9.999E+09, -9.999E+09, -9.999E+09, 255
2019-252T04:20:26.309,   1,   5,   1,    30,   4,       4096,     12.981,  47481.752,    41.775,    -6.417,     0.327,   280.981, 3, 2.400E+01,  1.50,  78,  1.264E-02,  1.147E-01, -9.999E+09, -9.999E+09, -9.999E+09, -9.999E+09, -9.999E+09, -9.999E+09, -9.999E+09, -9.999E+09, -9.999E+09, -9.999E+09, -9.999E+09, -9.999E+09, -9.999E+09, -9.999E+09, -9.999E+09, -9.999E+09, 255
2019-252T04:21:26.310,   1,   5,   1,    30,   4,       4096,     12.981,  47481.752,    41.769,    -6.416,     0.327,   280.377, 3, 2.400E+01,  1.50,  78,  1.563E-02,  1.147E-01, -9.999E+09, -9.999E+09, -9.999E+09, -9.999E+09, -9.999E+09, -9.999E+09, -9.999E+09, -9.999E+09, -9.999E+09, -9.999E+09, -9.999E+09, -9.999E+09, -9.999E+09, -9.999E+09, -9.999E+09, -9.999E+09, 255
2019-252T05:00:26.337,   1,   5,   1,    30,   4,       4096,     12.981,  47481.752,    41.534,    -6.350,     0.326,   256.786, 3, 2.400E+01,  1.50,  78,  1.961E-02,  1.147E-01, -9.999E+09, -9.999E+09, -9.999E+09, -9.999E+09, -9.999E+09, -9.999E+09, -9.999E+09, -9.999E+09, -9.999E+09, -9.999E+09, -9.999E+09, -9.999E+09, -9.999E+09, -9.999E+09, -9.999E+09, -9.999E+09, 255
2019-252T05:00:56.337,   1,   5,   1,    30,   4,       4096,     12.981,  47481.752,    41.530,    -6.349,     0.326,   256.484, 3, 2.400E+01,  1.50,  78,  2.105E-02,  1.147E-01, -9.999E+09, -9.999E+09, -9.999E+09, -9.999E+09, -9.999E+09, -9.999E+09, -9.999E+09, -9.999E+09, -9.999E+09, -9.999E+09, -9.999E+09, -9.999E+09, -9.999E+09, -9.999E+09, -9.999E+09, -9.999E+09, 255
2019-252T05:01:26.338,   1,   5,   1,    30,   4,       4096,     12.981,  47481.752,    41.527,    -6.348,     0.326,   256.181, 3, 2.400E+01,  1.50,  78,  1.836E-02,  1.147E-01, -9.999E+09, -9.999E+09, -9.999E+09, -9.999E+09, -9.999E+09, -9.999E+09, -9.999E+09, -9.999E+09, -9.999E+09, -9.999E+09, -9.999E+09, -9.999E+09, -9.999E+09, -9.999E+09, -9.999E+09, -9.999E+09, 255
2019-252T05:01:56.338,   1,   5,   1,    30,   4,       4096,     12.981,  47481.752,    41.524,    -6.347,     0.326,   255.879, 3, 2.400E+01,  1.50,  78,  2.777E-02,  1.147E-01, -9.999E+09, -9.999E+09, -9.999E+09, -9.999E+09, -9.999E+09, -9.999E+09, -9.999E+09, -9.999E+09, -9.999E+09, -9.999E+09, -9.999E+09, -9.999E+09, -9.999E+09, -9.999E+09, -9.999E+09, -9.999E+09, 255
2019-252T05:02:26.338,   1,   5,   1,    30,   4,       4096,     12.981,  47481.752,    41.521,    -6.346,     0.326,   255.576, 3, 2.400E+01,  1.50,  78,  2.668E-02,  1.147E-01, -9.999E+09, -9.999E+09, -9.999E+09, -9.999E+09, -9.999E+09, -9.999E+09, -9.999E+09, -9.999E+09, -9.999E+09, -9.999E+09, -9.999E+09, -9.999E+09, -9.999E+09, -9.999E+09, -9.999E+09, -9.999E+09, 255
2019-252T05:02:56.339,   1,   5,   1,    30,   4,       4096,     12.981,  47481.752,    41.518,    -6.346,     0.326,   255.274, 3, 2.400E+01,  1.50,  78,  2.955E-02,  1.147E-01, -9.999E+09, -9.999E+09, -9.999E+09, -9.999E+09, -9.999E+09, -9.999E+09, -9.999E+09, -9.999E+09, -9.999E+09, -9.999E+09, -9.999E+09, -9.999E+09, -9.999E+09, -9.999E+09, -9.999E+09, -9.999E+09, 255
2019-252T05:03:26.339,   1,   5,   1,    30,   4,       4096,     12.981,  47481.752,    41.515,    -6.345,     0.326,   254.971, 3, 2.400E+01,  1.50,  78,  2.277E-02,  1.147E-01, -9.999E+09, -9.999E+09, -9.999E+09, -9.999E+09, -9.999E+09, -9.999E+09, -9.999E+09, -9.999E+09, -9.999E+09, -9.999E+09, -9.999E+09, -9.999E+09, -9.999E+09, -9.999E+09, -9.999E+09, -9.999E+09, 255
2019-252T05:03:56.339,   1,   5,   1,    30,   4,       4096,     12.981,  47481.752,    41.512,    -6.344,     0.326,   254.669, 3, 2.400E+01,  1.50,  78,  3.158E-02,  1.147E-01, -9.999E+09, -9.999E+09, -9.999E+09, -9.999E+09, -9.999E+09, -9.999E+09, -9.999E+09, -9.999E+09, -9.999E+09, -9.999E+09, -9.999E+09, -9.999E+09, -9.999E+09, -9.999E+09, -9.999E+09, -9.999E+09, 255
2019-252T05:04:26.340,   1,   5,   1,    30,   4,       4096,     12.981,  47481.752,    41.509,    -6.343,     0.326,   254.367, 3, 2.400E+01,  1.50,  78,  2.257E-02,  1.147E-01, -9.999E+09, -9.999E+09, -9.999E+09, -9.999E+09, -9.999E+09, -9.999E+09, -9.999E+09, -9.999E+09, -9.999E+09, -9.999E+09, -9.999E+09, -9.999E+09, -9.999E+09, -9.999E+09, -9.999E+09, -9.999E+09, 255
2019-252T05:04:56.340,   1,   5,   1,    30,   4,       4096,     12.981,  47481.752,    41.506,    -6.342,     0.326,   254.064, 3, 2.400E+01,  1.50,  78,  1.976E-02,  1.147E-01, -9.999E+09, -9.999E+09, -9.999E+09, -9.999E+09, -9.999E+09, -9.999E+09, -9.999E+09, -9.999E+09, -9.999E+09, -9.999E+09, -9.999E+09, -9.999E+09, -9.999E+09, -9.999E+09, -9.999E+09, -9.999E+09, 255